Hourly Data Report for January 14, 2004

SHERBROOKE A
QUEBEC

45°26'00.000" N
71°41'00.000" W
241.40 m
7028124
71610
YSC

Download Data

Hourly Data (January 2004)
Hourly Data Report for January 14, 2004
TIME
LST
Temp Definition
°C
Dew Point Definition
°C
Rel Hum Definition
%
Precip. Amount Definition
mm

Wind Dir Definition
10's deg

Wind Spd Definition
km/h
Visibility Definition
km
Stn Press Definition
kPa
Hmdx Definition


Wind Chill Definition


Weather Definition


00:00 -28.1 -35.3 50   28 24 15.0 98.73   -42  
01:00 -28.8 -35.9 50   28 24 15.0 98.77   -43  
02:00 -29.5 -36.6 50   29 20 15.0 98.82   -42  
03:00 -29.8 -36.5 52   28 28 15.0 98.87   -45  
04:00 -29.6 -36.5 51   28 20 15.0 98.92   -43  
05:00 -29.7 -36.4 52   27 15 15.0 98.92   -41  
06:00 -30.5 -37.1 52   27 13 15.0 98.95   -41  
07:00 -30.9 -36.8 56   27 15 15.0 98.96   -43  
08:00 -31.3 -36.9 58   26 11 19.3 98.97   -41 Ice Crystals
09:00 -30.7 -36.4 57   28 13 19.3 98.98   -41 Ice Crystals
10:00 -29.9 -36.8 51   29 24 19.3 98.99   -44 Mainly Clear
11:00 -28.9 -36.1 50   28 24 19.3 98.94   -43 Mainly Clear
12:00 -28.3 -36.1 47   30 20 24.1 98.83   -41 Mainly Clear
13:00 -27.7 -35.9 46   29 19 24.1 98.74   -40 Mainly Clear
14:00 -26.8 -35.6 43   27 20 24.1 98.74   -39 Clear
15:00 -26.7 -35.6 43   28 19 24.1 98.72   -39 Clear
16:00 -27.1 -35.3 46   27 19 24.1 98.68   -39 Clear
17:00 -28.9 -35.7 52   29 9 24.1 98.67   -37 Mainly Clear
18:00 -30.8 -36.2 59   24 6 15.0 98.65   -37  
19:00 -32.1 -38.5 53   22 7 15.0 98.62   -40  
20:00 -32.0 -37.6 58   26 4 15.0 98.58   -37  
21:00 -32.4 -37.2 62     0 15.0 98.56      
22:00 -34.9 -39.4 63     0 15.0 98.54      
23:00 -34.6 -39.5 61   18 4 15.0 98.55   -40  

Notes on Data Quality.

Legend

  • E = Estimated
  • M = Missing
  • NA = Not Available*
  • [empty] = Indicates an unobserved value
Date modified: